Погода в Пинске

Погода в Пинске : погода сейчас, прогноз погоды и архив. Всё, что Вы хотите узнать о погоде в Пинске!

Хотите узнать прогноз погоды в Пинске? Тогда Вам сюда: Погода в Пинске

Поиск расширенной информации на нашем сайте:

Другие новости

Новости СМИ2

Главная страница сайта

Новости сайта

03.07.2017

Напоминаем, что на нашем специализированном сайте Метеоцентр.Азия вы можете получить высокодетализированные автоматические прогнозы погоды по пунктам России, СНГ и мира в авиационном формате (включающие направление и скорость ветра, видимость, явления погоды, количество и форму облачности, нижнюю и верхнюю границу облачности).


Погода в Пинске - сегодня

Время (UTC), дата Ветер
(°,м/с) 
Видим.   Явления Облачность Т
(°С)
Тd
(°С)
f(%) Тe
(°С)
Pmin
(гПа)
dP
(гПа)
Po
(мм)
O2
(г/м3)
Тmin Tmax R s Состояние
почвы
12 20.08.17 210 (ЮЗ) 10 км    9/0 средняя, верхняя 
[Ac trans|Ci fib]
+29.1 +16.3 46 +40  1013.3  -1.4  748  269           
15 20.08.17 300 (СЗ) 10 км    10/6 1000 м средняя, верхняя 
[Sc|Ac trans|Ci fib]
+25.9 +18.5 64 +41  1013.9  0.4  748  271           
18 20.08.17 030 (СВ) 10 км    10/8 600 м средняя 
[Sc|Ac trans]
+20.8 +17.7 82 +35  1014.2  -0.1  748  276    +30.5       
21 20.08.17 260 (З) 9000 м  дымка  9/9 600 м 
[Sc]
+18.5 +17 91 +32  1015.2  0.9  749  279           
00 21.08.17 280 (З) 7000 м  дымка  9/9 600 м 
[Sc]
+18 +17 94 +31  1014.8  -0.4  749  279           
03 21.08.17 290 (З) 3900 м  слаб. ливневой дождь  10/10 300 м кучево-дожд. 
[Cb calv]
+14.7 +14.1 96 +22  1015.7  0.6  749  284         
06 21.08.17 310 (СЗ) 3700 м  слаб. ливневой дождь  10/10 300 м кучево-дожд. 
[Cb calv]
+13.3 +12.7 96 +20  1016.4  0.6  750  285  +13.3       
09 21.08.17 310 (СЗ) 6000 м  дымка{ливн. осадки}  10/10 300 м 
[St]
+13.7 +12.7 94 +20  1017.7  1.3  751  285         
12 21.08.17 310 (СЗ) 9000 м  дымка{ливн. осадки}  10/10 300 м 
[St]
+15.1 +12.4 84 +20  1016.9  -0.7  750  284           
15 21.08.17 010 (С) 9000 м  в посл. час ливневой дождь  10/10 300 м 
[St]
+15 +13.4 90 +22  1017.1  0.2  750  284         
18 21.08.17 290 (З) 9000 м  дымка{ливн. осадки}  10/10 300 м 
[St]
+14.4 +12.8 90 +20  1017.1  750  285    +15.7     
21 21.08.17 290 (З) 8000 м  дымка  4/0 верхняя 
[Ci fib]
+13.1 +12 93 +18  1017  -0.2  750  286           
00 22.08.17 300 (СЗ) 3500 м  дымка  ясно 
+11.1 +10.8 98 +13  1016.2  -0.9  749  288           
03 22.08.17 300 (СЗ) 3700 м  дымка  8/0 средняя 
[Ac trans]
+10.5 +9.9 96 +13  1015.9  -0.3  749  289           
06 22.08.17 350 (С) 8000 м  дымка  9/0 средняя 
[Ac trans]
+12.4 +11.1 92 +17  1015.6  -0.2  749  287  +10.4         
09 22.08.17 320 (СЗ) 10 км    9/3 600 м средняя, верхняя 
[Sc|Ac trans|Ci fib]
+15.9 +12.5 80 +22  1015.1  -0.3  749  283           
12 22.08.17 350 (С) 15000 м    9/4 600 м средняя, верхняя 
[Sc|Ac trans|Ci fib]
+19.6 +12.1 62 +25  1013.7  -1.1  748  279           
15 22.08.17 300 (СЗ) 15000 м    9/4 600 м средняя 
[Sc|Ac trans]
+18.5 +10.4 59 +21  1012.8  -1  747  280           
18 22.08.17 300 (СЗ) 10 км    9/9 600 м 
[Sc]
+16.3 +11.7 74 +22  1012.5  -0.4  747  282    +20.4       
21 22.08.17 300 (СЗ) 10 км    8/0 средняя 
[Ac trans]
+13.5 +11.3 87 +18  1011.8  -0.9  746  284           
00 23.08.17 290 (З) 9000 м  дымка  8/0 средняя 
[Ac trans]
+11.9 +10.6 92 +15  1010.8  -1.1  745  286           
03 23.08.17 300 (СЗ) 3700 м  дымка  9/0 средняя, верхняя 
[Ac trans|Ci fib]
+11.1 +10.4 95 +14  1010.5  -0.3  745  287           
06 23.08.17 270 (З) 9000 м  дымка  9/9 1000 м 
[Sc]
+13 +11.3 89 +16  1010.6  0.2  745  284  +10.9         
09 23.08.17 280 (З) 10 км    10/9 600 м 
[Sc]
+16.7 +11.5 71 +20  1010.7  0.3  746  281           
12 23.08.17 300 (СЗ) 10 км    9/8 1000 м средняя 
[Cu hum|Ac trans]
+17.6 +11.1 66 +21  1010.8  0.2  746  280           
Время (UTC), дата Ветер
(°,м/с) 
Видим.   Явления Облачность Т
(°С)
Тd
(°С)
f(%) Тe
(°С)
Pmin
(гПа)
dP
(гПа)
Po
(мм)
O2
(г/м3)
Тmin Tmax R s Состояние
почвы

Для получения пояснительной информации подведите курсор к названию столбца.

ПОГОДА в Пинске - архив

Всё, что Вы хотите узнать о погоде в Пинске - удобно и подробно!

Выберите нужную дату (начиная с 1 января 2015* года) и нажмите кнопку "Найти".
Будут отображены архивные сводки погоды по пункту Пинск, начиная с указанной даты.


Отображать данные в формате CSV (для использования в таблицах Excel)


Внимание! Наш архив погоды предназначен исключительно для личного некоммерческого использования в познавательных целях. Если Вам необходимы официальные справки о состоянии погоды (для производственных, юридических, коммерческих и т.п. целей), обращайтесь в органы Росгидромета.

*Примечание: данная дата относится к архиву по метеостанциям СССР (Россия, СНГ, Балтия).
Архив по метеостанциям Зарубежной Европы и Азии (кроме Китая) хранится 10 дней, по другим регионам земного шара (Китай, Африка, Америка, Австралия, Океания) - 1 день.

Пинск - район местоположения метеостанции


Название, широта, долгота, высота метеостанции:
Пинск 52.1°ш. 26.1°д. 142 м над ур. моря [Беларусь]

Дополнительная информация

В oтличие oт бoльшинства пoгoдных сайтoв мы публикуем пoдрoбную метеoинфoрмацию в детальнoм прoфессиoнальнoм фoрмате.

Характеристики температуры и влажнoсти вoздуха измеряются на высoте 2 м в тени вдали oт зданий и деревьев.
Скoрoсть ветра измеряется на высoте 10 м (на урoвне рoста челoвека скoрoсть ветра ниже в 1.5-2 раза). Если метеoстанция нахoдится в гoрoде или в лесу, тo скoрoсть ветра занижена на 2-4 м/с пo сравнению с oткрытым местoм. Скoрoсть ветра над акватoриями крупных рек и oзёр, а также на вершинах хoлмoв на 2-5 м/с выше, чем в oбычных услoвиях.
Атмoсфернoе давление в разных тoчках местнoсти мoжет значительнo oтличаться oт давления на метеoстанции, в зависимoсти oт услoвий рельефа (при пoдъёме на 10 м давление пoнижается примернo на 1 мм рт.ст.).